,,PA_Meas_PMT16A,,PR_Meas_QMR101_102,,RH_Meas_QMH101,,SR_Meas_QMS101,,TA_Meas_QMH101,,GenWind,,GenWind,
time,status,PA,status,PR,status,RH,status,SR,status,TA,status,DirAvg,status,SpdAvg,
2014-06-20, 06:53:04,VALID,917.864,VALID,0,VALID,86.9527,VALID,41.0425,VALID,18.0484,VALID,137,VALID,1.23398,
2014-06-20, 06:54:04,VALID,917.9,VALID,0,VALID,86.8688,VALID,49.8527,VALID,18.0874,VALID,142,VALID,1.20156,
2014-06-20, 06:55:04,VALID,917.914,VALID,0,VALID,86.8688,VALID,55.1173,VALID,18.125,VALID,146,VALID,1.21758,
2014-06-20, 06:56:04,VALID,917.93,VALID,0,VALID,86.6554,VALID,58.448,VALID,18.203,VALID,146,VALID,1.0707,
2014-06-20, 06:57:04,VALID,917.916,VALID,0,VALID,86.4343,VALID,61.134,VALID,18.2615,VALID,146,VALID,1.06133,
2014-06-20, 06:58:04,VALID,917.916,VALID,0,VALID,86.2818,VALID,63.82,VALID,18.2809,VALID,146,VALID,1.31211,
2014-06-20, 06:59:04,VALID,917.895,VALID,0,VALID,86.0531,VALID,65.8614,VALID,18.3603,VALID,146,VALID,1.37539,
2014-06-20, 07:00:04,VALID,917.929,VALID,0,VALID,85.9998,VALID,64.8945,VALID,18.3784,VALID,146,VALID,0.970312,
2014-06-20, 07:01:04,VALID,917.895,VALID,0,VALID,86.0912,VALID,63.6052,VALID,18.3979,VALID,146,VALID,0.839063,
2014-06-20, 07:02:04,VALID,917.903,VALID,0,VALID,85.9464,VALID,65.4317,VALID,18.4174,VALID,146,VALID,0.9875,
2014-06-20, 07:03:04,VALID,917.935,VALID,0,VALID,85.8168,VALID,71.0186,VALID,18.4759,VALID,146,VALID,0.923437,
2014-06-20, 07:04:04,VALID,917.973,VALID,0,VALID,85.7024,VALID,76.9279,VALID,18.5344,VALID,146,VALID,0.583594,
2014-06-20, 07:05:04,VALID,917.957,VALID,0,VALID,85.3594,VALID,80.9032,VALID,18.6124,VALID,146,VALID,0.876172,
2014-06-20, 07:06:04,VALID,917.947,VALID,0,VALID,85.0773,VALID,81.2255,VALID,18.7084,VALID,146,VALID,0.658203,
2014-06-20, 07:07:04,VALID,917.968,VALID,0,VALID,84.6733,VALID,78.0023,VALID,18.8073,VALID,146,VALID,0.728125,
2014-06-20, 07:08:04,VALID,918,VALID,0,VALID,84.6123,VALID,75.5311,VALID,18.9048,VALID,146,VALID,0.460938,
2014-06-20, 07:09:04,VALID,917.999,VALID,0,VALID,84.4674,VALID,76.9279,VALID,18.9438,VALID,146,VALID,0.6875,
2014-06-20, 07:10:04,VALID,918.007,VALID,0,VALID,84.597,VALID,77.5725,VALID,19.0023,VALID,146,VALID,0.775391,
2014-06-20, 07:11:04,VALID,917.978,VALID,0,VALID,84.254,VALID,71.126,VALID,18.9814,VALID,136,VALID,1.11523,
2014-06-20, 07:12:04,VALID,917.988,VALID,0,VALID,84.3302,VALID,64.2498,VALID,18.9619,VALID,117,VALID,1.16562,
2014-06-20, 07:13:04,VALID,917.966,VALID,0,VALID,84.3912,VALID,64.0349,VALID,19.0023,VALID,117,VALID,1.0168,
2014-06-20, 07:14:04,VALID,917.945,VALID,0,VALID,84.8181,VALID,67.2582,VALID,19.0008,VALID,117,VALID,0.158984,
2014-06-20, 07:15:04,VALID,917.991,VALID,0,VALID,84.8944,VALID,67.3656,VALID,19.0203,VALID,117,VALID,0.382422,
2014-06-20, 07:16:04,VALID,918.003,VALID,0,VALID,84.7648,VALID,61.134,VALID,19.0008,VALID,117,VALID,0.540625,
2014-06-20, 07:17:04,VALID,917.99,VALID,0,VALID,84.4598,VALID,54.5801,VALID,19.0398,VALID,127,VALID,0.703906,
2014-06-20, 07:18:04,VALID,918.007,VALID,0,VALID,84.5513,VALID,55.1173,VALID,19.0203,VALID,128,VALID,0.628906,
2014-06-20, 07:19:04,VALID,918.024,VALID,0,VALID,84.5208,VALID,56.1917,VALID,18.9814,VALID,128,VALID,0.823047,
2014-06-20, 07:20:04,VALID,918.045,VALID,0,VALID,84.78,VALID,58.6629,VALID,18.9619,VALID,128,VALID,1.13125,
2014-06-20, 07:21:04,VALID,918.054,VALID,0,VALID,85.0011,VALID,66.9358,VALID,18.9034,VALID,135,VALID,1.19023,
2014-06-20, 07:22:04,VALID,918.057,VALID,0,VALID,85.3518,VALID,77.0353,VALID,18.8839,VALID,130,VALID,1.25,
2014-06-20, 07:23:04,VALID,918.119,VALID,0,VALID,85.489,VALID,83.4818,VALID,18.8644,VALID,130,VALID,1.15859,
2014-06-20, 07:24:04,VALID,918.105,VALID,0,VALID,85.6796,VALID,88.639,VALID,18.8839,VALID,128,VALID,1,
2014-06-20, 07:25:04,VALID,918.126,VALID,0,VALID,85.8473,VALID,95.8375,VALID,18.9243,VALID,133,VALID,0.769922,
2014-06-20, 07:26:04,VALID,918.135,VALID,0,VALID,86.0226,VALID,116.896,VALID,18.9633,VALID,133,VALID,0.546094,
2014-06-20, 07:27:04,VALID,918.155,VALID,0,VALID,85.8778,VALID,126.351,VALID,19.0023,VALID,133,VALID,0.715234,
2014-06-20, 07:28:04,VALID,918.125,VALID,0,VALID,85.9921,VALID,139.029,VALID,19.0398,VALID,133,VALID,0.434766,
2014-06-20, 07:29:04,VALID,918.144,VALID,0,VALID,85.6643,VALID,152.244,VALID,19.1193,VALID,133,VALID,0.735937,
2014-06-20, 07:30:04,VALID,918.154,VALID,0,VALID,85.5957,VALID,167.823,VALID,19.2168,VALID,133,VALID,0.660937,
2014-06-20, 07:31:04,VALID,918.142,VALID,0,VALID,85.3823,VALID,182.543,VALID,19.3143,VALID,133,VALID,0.623828,
2014-06-20, 07:32:04,VALID,918.159,VALID,0,VALID,84.963,VALID,191.46,VALID,19.4313,VALID,133,VALID,0.416406,
2014-06-20, 07:33:04,VALID,918.158,VALID,0,VALID,83.9719,VALID,195.328,VALID,19.5873,VALID,133,VALID,0.639063,
2014-06-20, 07:34:04,VALID,918.169,VALID,0,VALID,83.0571,VALID,200.378,VALID,19.7238,VALID,133,VALID,0.59375,
2014-06-20, 07:35:04,VALID,918.174,VALID,0,VALID,82.9046,VALID,206.717,VALID,19.8588,VALID,133,VALID,0.598437,
2014-06-20, 07:36:04,VALID,918.188,VALID,0,VALID,82.1957,VALID,216.386,VALID,20.0553,VALID,133,VALID,0.508984,
2014-06-20, 07:37:04,VALID,918.196,VALID,0,VALID,81.9975,VALID,221.866,VALID,20.2114,VALID,133,VALID,0.276953,
2014-06-20, 07:38:04,VALID,918.221,VALID,0,VALID,81.6697,VALID,222.94,VALID,20.4454,VALID,133,VALID,0.046875,
2014-06-20, 07:39:04,VALID,918.197,VALID,0,VALID,81.2275,VALID,227.56,VALID,20.6975,VALID,133,VALID,0.554297,
2014-06-20, 07:40:04,VALID,918.209,VALID,0,VALID,79.9468,VALID,232.288,VALID,20.8356,VALID,133,VALID,0.764844,
2014-06-20, 07:41:04,VALID,918.208,VALID,0,VALID,80.3356,VALID,235.081,VALID,20.912,VALID,128,VALID,0.705859,
2014-06-20, 07:42:04,VALID,918.227,VALID,0,VALID,79.3826,VALID,235.189,VALID,21.0096,VALID,112,VALID,1.16758,
2014-06-20, 07:43:04,VALID,918.231,VALID,0,VALID,79.4055,VALID,244.536,VALID,21.0291,VALID,111,VALID,0.971484,
2014-06-20, 07:44:04,VALID,918.27,VALID,0,VALID,79.901,VALID,248.834,VALID,21.0876,VALID,109,VALID,0.845703,
2014-06-20, 07:45:04,VALID,918.307,VALID,0,VALID,79.8172,VALID,252.057,VALID,21.2437,VALID,109,VALID,0.692578,
2014-06-20, 07:46:04,VALID,918.312,VALID,0,VALID,78.2162,VALID,255.817,VALID,21.3006,VALID,119,VALID,1.07773,
2014-06-20, 07:47:04,VALID,918.314,VALID,0,VALID,78.9328,VALID,256.999,VALID,21.3786,VALID,134,VALID,0.748828,
2014-06-20, 07:48:04,VALID,918.32,VALID,0,VALID,77.736,VALID,259.47,VALID,21.4567,VALID,136,VALID,1.02305,
2014-06-20, 07:49:04,VALID,918.341,VALID,0,VALID,77.0194,VALID,261.404,VALID,21.5152,VALID,139,VALID,0.847266,
2014-06-20, 07:50:04,VALID,918.358,VALID,0,VALID,78.1705,VALID,264.305,VALID,21.6144,VALID,137,VALID,0.583594,
2014-06-20, 07:51:04,VALID,918.342,VALID,0,VALID,77.3624,VALID,261.082,VALID,21.712,VALID,153,VALID,0.594922,
2014-06-20, 07:52:04,VALID,918.373,VALID,0,VALID,75.6167,VALID,266.561,VALID,21.8095,VALID,153,VALID,0.913281,
2014-06-20, 07:53:04,VALID,918.376,VALID,0,VALID,76.1808,VALID,267.851,VALID,21.829,VALID,153,VALID,0.808984,
2014-06-20, 07:54:04,VALID,918.363,VALID,0,VALID,74.2444,VALID,268.71,VALID,21.7705,VALID,153,VALID,0.908594,
2014-06-20, 07:55:04,VALID,918.358,VALID,0,VALID,75.6624,VALID,269.785,VALID,21.6713,VALID,148,VALID,0.757813,
2014-06-20, 07:56:04,VALID,918.376,VALID,0,VALID,76.623,VALID,269.57,VALID,21.6924,VALID,143,VALID,1.06406,
2014-06-20, 07:57:04,VALID,918.364,VALID,0,VALID,75.205,VALID,271.181,VALID,21.6323,VALID,141,VALID,1.02891,
2014-06-20, 07:58:04,VALID,918.409,VALID,0,VALID,75.9673,VALID,273.76,VALID,21.5949,VALID,142,VALID,1.02773,
2014-06-20, 07:59:04,VALID,918.416,VALID,0,VALID,77.0804,VALID,276.983,VALID,21.5754,VALID,142,VALID,0.936328,
2014-06-20, 08:00:04,VALID,918.394,VALID,0,VALID,78.1171,VALID,279.777,VALID,21.5932,VALID,142,VALID,0.565625,
2014-06-20, 08:01:04,VALID,918.393,VALID,0,VALID,78.5974,VALID,282.678,VALID,21.6908,VALID,141,VALID,0.657031,
2014-06-20, 08:02:04,VALID,918.398,VALID,0,VALID,76.0664,VALID,283.43,VALID,21.8095,VALID,135,VALID,0.863672,
2014-06-20, 08:03:04,VALID,918.43,VALID,0,VALID,77.6826,VALID,285.793,VALID,21.9054,VALID,135,VALID,0.303516,
2014-06-20, 08:04:04,VALID,918.464,VALID,0,VALID,77.3243,VALID,287.835,VALID,22.1005,VALID,135,VALID,0.319531,
2014-06-20, 08:05:04,VALID,918.458,VALID,0,VALID,76.5086,VALID,291.488,VALID,22.2957,VALID,135,VALID,0.0375,
2014-06-20, 08:06:04,VALID,918.473,VALID,0,VALID,75.1211,VALID,294.926,VALID,22.5299,VALID,135,VALID,0.417969,
2014-06-20, 08:07:04,VALID,918.492,VALID,0,VALID,73.0933,VALID,297.397,VALID,22.686,VALID,144,VALID,0.751172,
2014-06-20, 08:08:04,VALID,918.461,VALID,0,VALID,71.965,VALID,300.405,VALID,22.8209,VALID,153,VALID,0.946484,
2014-06-20, 08:09:04,VALID,918.505,VALID,0,VALID,72.1937,VALID,303.414,VALID,22.8989,VALID,153,VALID,0.871484,
2014-06-20, 08:10:04,VALID,918.515,VALID,0,VALID,71.4695,VALID,305.778,VALID,22.9983,VALID,153,VALID,1.03984,
2014-06-20, 08:11:04,VALID,918.509,VALID,0,VALID,70.1202,VALID,307.389,VALID,22.9965,VALID,153,VALID,1.04297,
2014-06-20, 08:12:04,VALID,918.524,VALID,0,VALID,69.7619,VALID,309.753,VALID,23.0941,VALID,153,VALID,0.937109,
2014-06-20, 08:13:04,VALID,918.537,VALID,0,VALID,69.2359,VALID,312.224,VALID,23.1722,VALID,153,VALID,1.01563,
2014-06-20, 08:14:04,VALID,918.527,VALID,0,VALID,69.6018,VALID,314.48,VALID,23.1136,VALID,153,VALID,0.697656,
2014-06-20, 08:15:04,VALID,918.502,VALID,0,VALID,69.396,VALID,318.885,VALID,23.1314,VALID,153,VALID,0.689453,
2014-06-20, 08:16:04,VALID,918.522,VALID,0,VALID,70.1354,VALID,322.109,VALID,23.0941,VALID,153,VALID,0.519141,
2014-06-20, 08:17:04,VALID,918.511,VALID,0,VALID,69.9982,VALID,324.795,VALID,23.1704,VALID,153,VALID,0.564062,
2014-06-20, 08:18:04,VALID,918.484,VALID,0,VALID,69.8305,VALID,328.34,VALID,23.2893,VALID,153,VALID,0.583594,
2014-06-20, 08:19:04,VALID,918.472,VALID,0,VALID,70.631,VALID,331.886,VALID,23.3461,VALID,153,VALID,0.564844,
2014-06-20, 08:20:04,VALID,918.488,VALID,0,VALID,70.8749,VALID,334.357,VALID,23.3478,VALID,153,VALID,0.455078,
2014-06-20, 08:21:04,VALID,918.509,VALID,0,VALID,70.0211,VALID,337.688,VALID,23.4437,VALID,153,VALID,0.578516,
2014-06-20, 08:22:04,VALID,918.529,VALID,0,VALID,68.6794,VALID,341.878,VALID,23.543,VALID,153,VALID,0.759375,
2014-06-20, 08:23:04,VALID,918.52,VALID,0,VALID,67.3986,VALID,344.134,VALID,23.543,VALID,153,VALID,0.96875,
2014-06-20, 08:24:04,VALID,918.535,VALID,0,VALID,67.6273,VALID,346.283,VALID,23.5626,VALID,153,VALID,0.763281,
2014-06-20, 08:25:04,VALID,918.554,VALID,0,VALID,66.9336,VALID,348.861,VALID,23.6992,VALID,153,VALID,0.878125,
2014-06-20, 08:26:04,VALID,918.562,VALID,0,VALID,66.1255,VALID,350.473,VALID,23.7773,VALID,153,VALID,0.510156,
2014-06-20, 08:27:04,VALID,918.573,VALID,0,VALID,66.5753,VALID,351.333,VALID,23.8944,VALID,153,VALID,0.534766,
2014-06-20, 08:28:04,VALID,918.588,VALID,0,VALID,67.0403,VALID,353.159,VALID,23.8749,VALID,153,VALID,0.466406,
2014-06-20, 08:29:04,VALID,918.564,VALID,0,VALID,65.6147,VALID,358.424,VALID,23.8358,VALID,153,VALID,0.452734,
2014-06-20, 08:30:04,VALID,918.559,VALID,0,VALID,66.7583,VALID,362.292,VALID,23.9335,VALID,153,VALID,0.728906,
2014-06-20, 08:31:04,VALID,918.599,VALID,0,VALID,65.6986,VALID,363.688,VALID,24.1092,VALID,153,VALID,0.408984,
2014-06-20, 08:32:04,VALID,918.588,VALID,0,VALID,66.4,VALID,367.664,VALID,24.1464,VALID,153,VALID,0.694141,
2014-06-20, 08:33:04,VALID,918.577,VALID,0,VALID,65.6071,VALID,371.639,VALID,24.1854,VALID,153,VALID,0.661719,
2014-06-20, 08:34:04,VALID,918.561,VALID,0,VALID,66.5677,VALID,372.713,VALID,24.283,VALID,153,VALID,0.542969,
2014-06-20, 08:35:04,VALID,918.598,VALID,0,VALID,65.0964,VALID,375.829,VALID,24.2068,VALID,153,VALID,0.791797,
2014-06-20, 08:36:04,VALID,918.608,VALID,0,VALID,66.4457,VALID,379.482,VALID,24.1269,VALID,153,VALID,0.321094,
2014-06-20, 08:37:04,VALID,918.657,VALID,0,VALID,66.095,VALID,383.028,VALID,24.2635,VALID,153,VALID,0.413672,
2014-06-20, 08:38:04,VALID,918.649,VALID,0,VALID,66.339,VALID,386.573,VALID,24.4002,VALID,153,VALID,0.222656,
2014-06-20, 08:39:04,VALID,918.637,VALID,0,VALID,66.3618,VALID,387.648,VALID,24.5759,VALID,153,VALID,0.314453,
2014-06-20, 08:40:04,VALID,918.653,VALID,0,VALID,64.578,VALID,391.301,VALID,24.5564,VALID,153,VALID,0.816797,
2014-06-20, 08:41:04,VALID,918.647,VALID,0,VALID,66.2704,VALID,389.582,VALID,24.4002,VALID,153,VALID,0.373047,
2014-06-20, 08:42:04,VALID,918.67,VALID,0,VALID,66.7125,VALID,376.366,VALID,24.3044,VALID,153,VALID,0.325781,
2014-06-20, 08:43:04,VALID,918.677,VALID,0,VALID,66.3771,VALID,323.72,VALID,24.2263,VALID,153,VALID,0.296094,
2014-06-20, 08:44:04,VALID,918.671,VALID,0,VALID,66.5829,VALID,180.716,VALID,24.1482,VALID,153,VALID,0.625391,
2014-06-20, 08:45:04,VALID,918.691,VALID,0,VALID,68.4583,VALID,355.308,VALID,24.1092,VALID,153,VALID,0.511719,
2014-06-20, 08:46:04,VALID,918.692,VALID,0,VALID,66.9641,VALID,383.135,VALID,24.2458,VALID,153,VALID,0.157422,
2014-06-20, 08:47:04,VALID,918.692,VALID,0,VALID,65.7062,VALID,311.257,VALID,24.4411,VALID,153,VALID,0.198437,
2014-06-20, 08:48:04,VALID,918.727,VALID,0,VALID,64.8067,VALID,372.069,VALID,24.4783,VALID,153,VALID,0.353125,
2014-06-20, 08:49:04,VALID,918.707,VALID,0,VALID,65.7825,VALID,409.673,VALID,24.5582,VALID,153,VALID,0.512109,
2014-06-20, 08:50:04,VALID,918.721,VALID,0,VALID,65.2946,VALID,422.351,VALID,24.6754,VALID,153,VALID,0.354297,
2014-06-20, 08:51:04,VALID,918.7,VALID,0,VALID,64.8524,VALID,431.161,VALID,24.734,VALID,153,VALID,0.639453,
2014-06-20, 08:52:04,VALID,918.642,VALID,0,VALID,63.7165,VALID,437.071,VALID,24.8121,VALID,153,VALID,0.319141,
2014-06-20, 08:53:04,VALID,918.66,VALID,0,VALID,63.4192,VALID,440.616,VALID,24.9097,VALID,153,VALID,0.280078,
2014-06-20, 08:54:04,VALID,918.665,VALID,0,VALID,64.8676,VALID,440.401,VALID,25.1226,VALID,149,VALID,0.524219,
2014-06-20, 08:55:04,VALID,918.662,VALID,0,VALID,61.4142,VALID,445.236,VALID,25.3374,VALID,136,VALID,0.632813,
2014-06-20, 08:56:04,VALID,918.655,VALID,0,VALID,60.0649,VALID,446.74,VALID,25.4156,VALID,136,VALID,0.398828,
2014-06-20, 08:57:04,VALID,918.661,VALID,0,VALID,60.3165,VALID,445.988,VALID,25.396,VALID,136,VALID,0.458984,
2014-06-20, 08:58:04,VALID,918.67,VALID,0,VALID,61.7497,VALID,442.335,VALID,25.3374,VALID,136,VALID,0.636328,
2014-06-20, 08:59:04,VALID,918.675,VALID,0,VALID,63.038,VALID,436.748,VALID,25.2203,VALID,8,VALID,1.15273,
2014-06-20, 09:00:04,VALID,918.692,VALID,0,VALID,62.0012,VALID,436.748,VALID,25.0055,VALID,3,VALID,1.65117,
2014-06-20, 09:01:04,VALID,918.667,VALID,0,VALID,62.8474,VALID,435.889,VALID,24.9078,VALID,352,VALID,0.671484,
2014-06-20, 09:02:04,VALID,918.699,VALID,0,VALID,59.4245,VALID,452.005,VALID,24.9274,VALID,7,VALID,0.953125,
2014-06-20, 09:03:04,VALID,918.652,VALID,0,VALID,61.7116,VALID,460.6,VALID,24.9274,VALID,7,VALID,0.321484,
2014-06-20, 09:04:04,VALID,918.665,VALID,0,VALID,62.1537,VALID,466.402,VALID,24.9664,VALID,8,VALID,0.717969,
2014-06-20, 09:05:04,VALID,918.63,VALID,0,VALID,62.2528,VALID,466.509,VALID,25.2007,VALID,17,VALID,0.935156,
2014-06-20, 09:06:04,VALID,918.628,VALID,0,VALID,60.5071,VALID,470.27,VALID,25.316,VALID,7,VALID,0.324609,
2014-06-20, 09:07:04,VALID,918.607,VALID,0,VALID,60.7815,VALID,463.609,VALID,25.4527,VALID,7,VALID,0.213281,
2014-06-20, 09:08:04,VALID,918.61,VALID,0,VALID,62.329,VALID,444.269,VALID,25.689,VALID,8,VALID,1.0793,
2014-06-20, 09:09:04,VALID,918.605,VALID,0,VALID,58.5326,VALID,452.65,VALID,25.7476,VALID,351,VALID,1.29492,
2014-06-20, 09:10:04,VALID,918.593,VALID,0,VALID,58.2581,VALID,417.516,VALID,25.7261,VALID,353,VALID,0.644531,
2014-06-20, 09:11:04,VALID,918.584,VALID,0,VALID,58.8147,VALID,408.599,VALID,25.7671,VALID,352,VALID,0.370313,
2014-06-20, 09:12:04,VALID,918.607,VALID,0,VALID,60.1106,VALID,481.121,VALID,25.7651,VALID,352,VALID,0.130859,
2014-06-20, 09:13:04,VALID,918.605,VALID,0,VALID,58.6927,VALID,490.039,VALID,25.6675,VALID,348,VALID,0.699609,
2014-06-20, 09:14:04,VALID,918.582,VALID,0,VALID,60.3546,VALID,493.37,VALID,25.5894,VALID,348,VALID,0.174609,
2014-06-20, 09:15:04,VALID,918.572,VALID,0,VALID,59.9734,VALID,497.775,VALID,25.6109,VALID,348,VALID,0.501562,
2014-06-20, 09:16:04,VALID,918.588,VALID,0,VALID,59.4931,VALID,499.709,VALID,25.6109,VALID,348,VALID,0.0484375,
2014-06-20, 09:17:04,VALID,918.597,VALID,0,VALID,58.8223,VALID,501.106,VALID,25.7261,VALID,348,VALID,0.469922,
2014-06-20, 09:18:04,VALID,918.599,VALID,0,VALID,60.6671,VALID,504.973,VALID,25.8042,VALID,347,VALID,0.778516,
2014-06-20, 09:19:04,VALID,918.624,VALID,0,VALID,59.4245,VALID,506.478,VALID,25.8237,VALID,5,VALID,1.93398,
2014-06-20, 09:20:04,VALID,918.577,VALID,0,VALID,58.9671,VALID,508.412,VALID,25.5113,VALID,22,VALID,2.06562,
2014-06-20, 09:21:04,VALID,918.613,VALID,0,VALID,60.6062,VALID,509.164,VALID,25.396,VALID,7,VALID,0.933984,
2014-06-20, 09:22:04,VALID,918.609,VALID,0,VALID,58.2429,VALID,514.428,VALID,25.2379,VALID,338,VALID,1.08008,
2014-06-20, 09:23:04,VALID,918.619,VALID,0,VALID,59.5694,VALID,516.147,VALID,25.1598,VALID,338,VALID,0.529297,
2014-06-20, 09:24:04,VALID,918.615,VALID,0,VALID,62.1308,VALID,517.114,VALID,25.2007,VALID,337,VALID,1.18828,
2014-06-20, 09:25:04,VALID,918.59,VALID,0,VALID,62.2604,VALID,518.404,VALID,25.2183,VALID,328,VALID,0.70625,
2014-06-20, 09:26:04,VALID,918.616,VALID,0,VALID,60.7358,VALID,523.453,VALID,25.1988,VALID,321,VALID,0.226563,
2014-06-20, 09:27:04,VALID,918.615,VALID,0,VALID,62.0165,VALID,524.42,VALID,25.2769,VALID,321,VALID,0.723437,
2014-06-20, 09:28:04,VALID,918.614,VALID,0,VALID,60.3165,VALID,527.321,VALID,25.3355,VALID,321,VALID,0.316406,
2014-06-20, 09:29:04,VALID,918.603,VALID,0,VALID,60.1183,VALID,530.437,VALID,25.4917,VALID,321,VALID,0.397656,
2014-06-20, 09:30:04,VALID,918.636,VALID,0,VALID,60.8654,VALID,534.412,VALID,25.5698,VALID,321,VALID,1.05859,
2014-06-20, 09:31:04,VALID,918.639,VALID,0,VALID,60.8272,VALID,537.958,VALID,25.4527,VALID,328,VALID,1.05313,
2014-06-20, 09:32:04,VALID,918.651,VALID,0,VALID,61.521,VALID,541.074,VALID,25.4507,VALID,355,VALID,0.698047,
2014-06-20, 09:33:04,VALID,918.671,VALID,0,VALID,60.2326,VALID,545.479,VALID,25.5308,VALID,27,VALID,0.592188,
2014-06-20, 09:34:04,VALID,918.644,VALID,0,VALID,61.9707,VALID,547.198,VALID,25.5894,VALID,15,VALID,1.07148,
2014-06-20, 09:35:04,VALID,918.657,VALID,0,VALID,61.9784,VALID,549.991,VALID,25.8452,VALID,15,VALID,0.322266,
2014-06-20, 09:36:04,VALID,918.658,VALID,0,VALID,60.6214,VALID,553.214,VALID,26.0776,VALID,7,VALID,0.827734,
2014-06-20, 09:37:04,VALID,918.64,VALID,0,VALID,60.4537,VALID,555.256,VALID,26.2534,VALID,51,VALID,1.24023,
2014-06-20, 09:38:04,VALID,918.632,VALID,0,VALID,59.8743,VALID,553.644,VALID,26.2554,VALID,63,VALID,1.28984,
2014-06-20, 09:39:04,VALID,918.639,VALID,0,VALID,60.8806,VALID,559.554,VALID,26.0015,VALID,47,VALID,2.19609,
2014-06-20, 09:40:04,VALID,918.629,VALID,0,VALID,62.2071,VALID,562.669,VALID,25.7847,VALID,342,VALID,1.58359,
2014-06-20, 09:41:04,VALID,918.677,VALID,0,VALID,58.9061,VALID,565.463,VALID,25.689,VALID,343,VALID,0.199609,
2014-06-20, 09:42:04,VALID,918.67,VALID,0,VALID,60.5452,VALID,567.612,VALID,25.6694,VALID,328,VALID,1.13867,
2014-06-20, 09:43:04,VALID,918.656,VALID,0,VALID,62.2376,VALID,572.017,VALID,25.6499,VALID,31,VALID,1.39375,
2014-06-20, 09:44:04,VALID,918.662,VALID,0,VALID,61.1703,VALID,574.058,VALID,25.5718,VALID,60,VALID,2.33437,
2014-06-20, 09:45:04,VALID,918.641,VALID,0,VALID,64.151,VALID,577.604,VALID,25.2769,VALID,33,VALID,2.41055,
2014-06-20, 09:46:04,VALID,918.68,VALID,0,VALID,63.5336,VALID,578.893,VALID,25.2379,VALID,357,VALID,1.42227,
2014-06-20, 09:47:04,VALID,918.688,VALID,0,VALID,62.8093,VALID,580.397,VALID,25.4156,VALID,350,VALID,0.670313,
2014-06-20, 09:48:04,VALID,918.68,VALID,0,VALID,60.9949,VALID,582.224,VALID,25.5718,VALID,350,VALID,1.0125,
2014-06-20, 09:49:04,VALID,918.681,VALID,0,VALID,61.6963,VALID,586.199,VALID,25.5523,VALID,341,VALID,1.72891,
2014-06-20, 09:50:04,VALID,918.661,VALID,0,VALID,62.0851,VALID,589.1,VALID,25.4741,VALID,354,VALID,0.544922,
2014-06-20, 09:51:04,VALID,918.647,VALID,0,VALID,65.1573,VALID,591.141,VALID,25.5913,VALID,352,VALID,0.727734,
2014-06-20, 09:52:04,VALID,918.691,VALID,0,VALID,64.5017,VALID,593.505,VALID,25.7847,VALID,13,VALID,1.89219,
2014-06-20, 09:53:04,VALID,918.665,VALID,0,VALID,61.1322,VALID,595.976,VALID,25.7456,VALID,8,VALID,1.60859,
2014-06-20, 09:54:04,VALID,918.668,VALID,0,VALID,61.1855,VALID,595.761,VALID,25.5894,VALID,42,VALID,0.833594,
2014-06-20, 09:55:04,VALID,918.643,VALID,0,VALID,62.2299,VALID,600.489,VALID,25.4956,VALID,62,VALID,0.778516,
2014-06-20, 09:56:04,VALID,918.659,VALID,0,VALID,63.9681,VALID,603.282,VALID,25.5113,VALID,17,VALID,1.89531,
2014-06-20, 09:57:04,VALID,918.647,VALID,0,VALID,62.451,VALID,604.357,VALID,25.687,VALID,12,VALID,2.84687,
2014-06-20, 09:58:04,VALID,918.652,VALID,0,VALID,62.7331,VALID,607.257,VALID,25.646,VALID,32,VALID,1.17383,
2014-06-20, 09:59:04,VALID,918.647,VALID,0,VALID,61.9326,VALID,610.158,VALID,25.6675,VALID,349,VALID,1.16992,
2014-06-20, 10:00:04,VALID,918.625,VALID,0,VALID,60.7129,VALID,612.307,VALID,25.6675,VALID,5,VALID,2.06367,
2014-06-20, 10:01:04,VALID,918.657,VALID,0,VALID,61.9098,VALID,612.952,VALID,25.648,VALID,6,VALID,2.58125,
2014-06-20, 10:02:04,VALID,918.665,VALID,0,VALID,61.7116,VALID,615.745,VALID,25.5698,VALID,345,VALID,1.70586,
2014-06-20, 10:03:04,VALID,918.648,VALID,0,VALID,63.8461,VALID,618.324,VALID,25.5894,VALID,30,VALID,1.59375,
2014-06-20, 10:04:04,VALID,918.666,VALID,0,VALID,63.93,VALID,620.902,VALID,25.648,VALID,22,VALID,1.00703,
2014-06-20, 10:05:04,VALID,918.659,VALID,0,VALID,65.2717,VALID,623.159,VALID,25.8413,VALID,13,VALID,2.06094,
2014-06-20, 10:06:04,VALID,918.612,VALID,0,VALID,62.1766,VALID,626.919,VALID,25.9234,VALID,16,VALID,2.33359,
2014-06-20, 10:07:04,VALID,918.638,VALID,0,VALID,63.3201,VALID,628.961,VALID,25.8823,VALID,23,VALID,1.65508,
2014-06-20, 10:08:04,VALID,918.647,VALID,0,VALID,61.6277,VALID,630.465,VALID,25.8608,VALID,359,VALID,1.56953,
2014-06-20, 10:09:04,VALID,918.628,VALID,0,VALID,61.155,VALID,631.861,VALID,25.8999,VALID,330,VALID,1.24609,
2014-06-20, 10:10:04,VALID,918.593,VALID,0,VALID,60.0344,VALID,635.085,VALID,25.98,VALID,33,VALID,1.87969,
2014-06-20, 10:11:04,VALID,918.616,VALID,0,VALID,63.2134,VALID,636.266,VALID,25.9604,VALID,25,VALID,1.04688,
2014-06-20, 10:12:04,VALID,918.608,VALID,0,VALID,62.2909,VALID,640.457,VALID,26.0561,VALID,48,VALID,1.29648,
2014-06-20, 10:13:04,VALID,918.573,VALID,0,VALID,59.6227,VALID,641.639,VALID,26.2534,VALID,5,VALID,1.39102,
2014-06-20, 10:14:04,VALID,918.611,VALID,0,VALID,62.8627,VALID,643.143,VALID,26.3902,VALID,4,VALID,1.32187,
2014-06-20, 10:15:04,VALID,918.593,VALID,0,VALID,60.347,VALID,644.432,VALID,26.3902,VALID,18,VALID,2.69062,
2014-06-20, 10:16:04,VALID,918.619,VALID,0,VALID,59.7828,VALID,645.936,VALID,26.273,VALID,2,VALID,1.30547,
2014-06-20, 10:17:04,VALID,918.591,VALID,0,VALID,62.2528,VALID,647.333,VALID,26.2534,VALID,17,VALID,2.00039,
2014-06-20, 10:18:04,VALID,918.618,VALID,0,VALID,61.2618,VALID,650.449,VALID,26.4097,VALID,341,VALID,1.44492,
2014-06-20, 10:19:04,VALID,918.573,VALID,0,VALID,58.6698,VALID,652.598,VALID,26.4683,VALID,301,VALID,1.13516,
2014-06-20, 10:20:04,VALID,918.577,VALID,0,VALID,61.1017,VALID,655.821,VALID,26.3706,VALID,14,VALID,1.32461,
2014-06-20, 10:21:04,VALID,918.579,VALID,0,VALID,59.7676,VALID,656.895,VALID,26.4488,VALID,359,VALID,0.29375,
2014-06-20, 10:22:04,VALID,918.563,VALID,0,VALID,58.6012,VALID,658.292,VALID,26.6246,VALID,359,VALID,0.198047,
2014-06-20, 10:23:04,VALID,918.571,VALID,0,VALID,59.0738,VALID,660.118,VALID,26.7984,VALID,359,VALID,0.196094,
2014-06-20, 10:24:04,VALID,918.555,VALID,0,VALID,59.0129,VALID,661.73,VALID,26.857,VALID,322,VALID,0.592578,
2014-06-20, 10:25:04,VALID,918.544,VALID,0,VALID,58.2963,VALID,664.953,VALID,26.8179,VALID,322,VALID,0.641797,
2014-06-20, 10:26:04,VALID,918.563,VALID,0,VALID,58.281,VALID,667.317,VALID,26.6636,VALID,275,VALID,1.1543,